UAE62P OMDB-YMML

Flight info

Callsign UAE62P
Flight time N/A
Altitude 29000
Route ANVIX L223 TARDI N629 GIDAN P570 EMURU M300 VASTU P895 AKLON/N0506F310 P895 BIKOK M641 KAT N640 ELATI DCT 07S095E/N0499F330 10S098E DCT SAKAB DCT BIBGA DCT ATLOD/N0486F350 DCT OPALL DCT LST DCT SEEMO DCT ISRED DCT DONBU DCT MTG Y53 ALAXO
Aircraft B77W/H-SDE1E2E3FGHIJ2J3J4J5M1RWXY/LB1D1

Departure

Time 2026-05-03 23:21
Airport Dubai International Airport (OMDB)

Arrival

Time N/A
Airport Melbourne Airport (YMML)
Time Latitude Longitude Altitude Speed Heading
2026-05-03 22:41 25.24744 55.36156 27 ft 0 kts 31°
2026-05-03 23:06 25.24727 55.36144 41 ft 4 kts 31°
2026-05-03 23:06 25.24708 55.36131 46 ft 4 kts 37°
2026-05-03 23:06 25.24691 55.36111 26 ft 4 kts 65°
2026-05-03 23:06 25.24686 55.36085 25 ft 4 kts 110°
2026-05-03 23:07 25.24699 55.36061 25 ft 4 kts 122°
2026-05-03 23:07 25.24711 55.36038 25 ft 1 kts 122°
2026-05-03 23:07 25.24712 55.36037 25 ft 0 kts 122°
2026-05-03 23:12 25.24696 55.36064 27 ft 10 kts 122°
2026-05-03 23:12 25.24659 55.36130 27 ft 10 kts 122°
2026-05-03 23:12 25.24622 55.36197 27 ft 10 kts 122°
2026-05-03 23:12 25.24584 55.36263 27 ft 10 kts 121°
2026-05-03 23:13 25.24547 55.36330 27 ft 10 kts 122°
2026-05-03 23:13 25.24510 55.36397 27 ft 10 kts 122°
2026-05-03 23:13 25.24471 55.36466 27 ft 11 kts 119°
2026-05-03 23:13 25.24450 55.36552 27 ft 12 kts 91°
2026-05-03 23:14 25.24475 55.36642 27 ft 13 kts 56°
2026-05-03 23:14 25.24544 55.36705 27 ft 13 kts 33°
2026-05-03 23:14 25.24623 55.36757 27 ft 14 kts 31°
2026-05-03 23:14 25.24707 55.36815 27 ft 14 kts 31°
2026-05-03 23:15 25.24722 55.36902 27 ft 14 kts 123°
2026-05-03 23:15 25.24670 55.36995 27 ft 14 kts 121°
2026-05-03 23:15 25.24617 55.37089 27 ft 15 kts 122°
2026-05-03 23:15 25.24559 55.37191 27 ft 16 kts 122°
2026-05-03 23:16 25.24501 55.37295 27 ft 16 kts 121°
2026-05-03 23:16 25.24447 55.37400 27 ft 16 kts 113°
2026-05-03 23:16 25.24427 55.37519 27 ft 16 kts 93°
2026-05-03 23:16 25.24406 55.37638 27 ft 16 kts 112°
2026-05-03 23:17 25.24352 55.37744 27 ft 16 kts 124°
2026-05-03 23:17 25.24292 55.37847 27 ft 16 kts 121°
2026-05-03 23:17 25.24234 55.37950 27 ft 16 kts 120°
2026-05-03 23:17 25.24221 55.38056 27 ft 15 kts 50°
2026-05-03 23:18 25.24307 55.38122 27 ft 15 kts 31°
2026-05-03 23:18 25.24397 55.38182 27 ft 15 kts 31°
2026-05-03 23:18 25.24486 55.38243 27 ft 15 kts 31°
2026-05-03 23:18 25.24550 55.38286 27 ft 4 kts 31°
2026-05-03 23:19 25.24571 55.38300 27 ft 4 kts 31°
2026-05-03 23:19 25.24596 55.38317 27 ft 6 kts 31°
2026-05-03 23:19 25.24636 55.38326 27 ft 6 kts 333°
2026-05-03 23:19 25.24656 55.38296 27 ft 0 kts 302°
2026-05-03 23:20 25.24754 55.38122 27 ft 64 kts 301°
2026-05-03 23:20 25.25127 55.37449 27 ft 140 kts 301°
2026-05-03 23:21 25.25759 55.36295 29 ft 209 kts 299°
2026-05-03 23:21 25.26546 55.34797 463 ft 231 kts 298°
2026-05-03 23:21 25.27357 55.33278 1489 ft 227 kts 301°
2026-05-03 23:21 25.28177 55.31841 2590 ft 216 kts 301°
2026-05-03 23:22 25.29515 55.28809 3252 ft 223 kts 274°
2026-05-03 23:22 25.29219 55.27116 3542 ft 229 kts 245°
2026-05-03 23:22 25.28392 55.25616 3993 ft 228 kts 240°
2026-05-03 23:23 25.27565 55.24112 4380 ft 230 kts 243°
2026-05-03 23:23 25.26796 55.22553 4804 ft 231 kts 245°
2026-05-03 23:23 25.26061 55.20976 5229 ft 231 kts 245°
2026-05-03 23:23 25.25342 55.19382 5629 ft 232 kts 246°
2026-05-03 23:24 25.24496 55.17868 5995 ft 236 kts 227°
2026-05-03 23:24 25.23068 55.16911 6231 ft 250 kts 200°
2026-05-03 23:24 25.21292 55.16721 6421 ft 267 kts 175°
2026-05-03 23:24 25.19522 55.17488 6593 ft 285 kts 146°
2026-05-03 23:25 25.18150 55.19128 6784 ft 298 kts 123°
2026-05-03 23:25 25.17065 55.21109 6928 ft 312 kts 122°
2026-05-03 23:25 25.15957 55.23213 7260 ft 321 kts 121°
2026-05-03 23:25 25.14833 55.25367 7710 ft 326 kts 121°
2026-05-03 23:26 25.13695 55.27547 8249 ft 327 kts 121°
2026-05-03 23:26 25.12552 55.29727 8816 ft 329 kts 121°
2026-05-03 23:26 25.11398 55.31917 9300 ft 331 kts 121°
2026-05-03 23:26 25.10227 55.34128 9789 ft 335 kts 121°
2026-05-03 23:27 25.09048 55.36349 10243 ft 338 kts 121°
2026-05-03 23:27 25.08245 55.37856 10340 ft 349 kts 121°
2026-05-03 23:27 25.06981 55.40225 10488 ft 366 kts 121°
2026-05-03 23:27 25.05218 55.43527 10660 ft 388 kts 121°
2026-05-03 23:28 25.03823 55.46135 10901 ft 400 kts 121°
2026-05-03 23:28 25.02862 55.47933 11139 ft 406 kts 121°
2026-05-03 23:28 25.01435 55.50597 11584 ft 411 kts 121°
2026-05-03 23:28 24.99960 55.53353 12186 ft 412 kts 120°
2026-05-03 23:29 24.98501 55.56077 12799 ft 413 kts 120°
2026-05-03 23:29 24.97053 55.58777 13382 ft 415 kts 120°
2026-05-03 23:29 24.95580 55.61523 13862 ft 418 kts 120°
2026-05-03 23:29 24.94091 55.64296 14297 ft 422 kts 120°
2026-05-03 23:30 24.92591 55.67088 14707 ft 426 kts 120°
2026-05-03 23:30 24.91076 55.69908 15134 ft 429 kts 120°
2026-05-03 23:30 24.89548 55.72749 15586 ft 433 kts 120°
2026-05-03 23:30 24.88005 55.75616 16015 ft 436 kts 120°
2026-05-03 23:31 24.86452 55.78500 16449 ft 439 kts 120°
2026-05-03 23:31 24.84890 55.81400 16903 ft 442 kts 120°
2026-05-03 23:31 24.83318 55.84316 17389 ft 444 kts 120°
2026-05-03 23:31 24.81738 55.87247 17816 ft 447 kts 120°
2026-05-03 23:32 24.80162 55.90165 18201 ft 451 kts 120°
2026-05-03 23:32 24.78410 55.93049 18551 ft 455 kts 127°
2026-05-03 23:32 24.76380 55.95729 18932 ft 458 kts 133°
2026-05-03 23:32 24.74083 55.98161 19317 ft 460 kts 138°
2026-05-03 23:33 24.71697 56.00533 19694 ft 462 kts 137°
2026-05-03 23:33 24.69328 56.02941 20072 ft 465 kts 137°
2026-05-03 23:33 24.66960 56.05377 20433 ft 468 kts 137°
2026-05-03 23:33 24.64565 56.07835 20796 ft 471 kts 137°
2026-05-03 23:34 24.62159 56.10298 21174 ft 473 kts 137°
2026-05-03 23:34 24.59746 56.12766 21550 ft 475 kts 137°
2026-05-03 23:34 24.57361 56.15238 21888 ft 479 kts 136°
2026-05-03 23:34 24.55081 56.17917 22209 ft 481 kts 130°
2026-05-03 23:35 24.52899 56.20727 22568 ft 484 kts 130°
2026-05-03 23:35 24.50720 56.23563 22897 ft 487 kts 130°
2026-05-03 23:35 24.48528 56.26407 23229 ft 490 kts 130°
2026-05-03 23:35 24.46306 56.29266 23492 ft 492 kts 131°
2026-05-03 23:36 24.44061 56.32126 23710 ft 495 kts 131°
2026-05-03 23:36 24.41809 56.34992 23935 ft 498 kts 131°
2026-05-03 23:36 24.39539 56.37876 24165 ft 500 kts 131°
2026-05-03 23:36 24.37255 56.40774 24435 ft 503 kts 131°
2026-05-03 23:37 24.34956 56.43689 24677 ft 505 kts 131°
2026-05-03 23:37 24.32657 56.46604 24917 ft 507 kts 131°
2026-05-03 23:37 24.30375 56.49501 25152 ft 509 kts 130°
2026-05-03 23:37 24.28181 56.52563 25365 ft 512 kts 126°
2026-05-03 23:38 24.26084 56.55746 25600 ft 515 kts 126°
2026-05-03 23:38 24.23988 56.58948 25828 ft 517 kts 126°
2026-05-03 23:38 24.21882 56.62158 26057 ft 519 kts 126°
2026-05-03 23:38 24.19759 56.65377 26293 ft 521 kts 126°
2026-05-03 23:39 24.17621 56.68602 26535 ft 524 kts 126°
2026-05-03 23:39 24.15474 56.71832 26752 ft 526 kts 126°
2026-05-03 23:39 24.13316 56.75072 26976 ft 528 kts 126°
2026-05-03 23:39 24.11148 56.78325 27194 ft 530 kts 126°
2026-05-03 23:40 24.08970 56.81594 27409 ft 532 kts 126°
2026-05-03 23:40 24.06790 56.84865 27606 ft 534 kts 126°
2026-05-03 23:40 24.04594 56.88157 27790 ft 536 kts 126°
2026-05-03 23:40 24.02388 56.91455 27993 ft 538 kts 127°
2026-05-03 23:41 24.00167 56.94761 28169 ft 540 kts 127°
2026-05-03 23:41 23.97965 56.98031 28348 ft 542 kts 127°
2026-05-03 23:41 23.95727 57.01353 28511 ft 543 kts 127°
2026-05-03 23:41 23.93483 57.04686 28671 ft 545 kts 127°
2026-05-03 23:42 23.88968 57.11389 28770 ft 547 kts 127°
2026-05-03 23:42 23.84473 57.18070 28744 ft 544 kts 126°
2026-05-03 23:43 23.80006 57.24713 28771 ft 541 kts 126°
2026-05-03 23:43 23.75570 57.31301 28757 ft 540 kts 127°
2026-05-03 23:44 23.71075 57.37946 28781 ft 541 kts 127°
2026-05-03 23:44 23.66441 57.44368 28783 ft 543 kts 129°
2026-05-03 23:45 23.61695 57.50805 28777 ft 544 kts 129°
2026-05-03 23:45 23.56984 57.57268 28801 ft 545 kts 128°
2026-05-03 23:46 23.52273 57.63762 28786 ft 546 kts 128°
2026-05-03 23:46 23.47559 57.70238 28823 ft 546 kts 129°
2026-05-03 23:47 23.42821 57.76703 28799 ft 545 kts 129°
2026-05-03 23:47 23.38089 57.83146 28805 ft 544 kts 129°
2026-05-03 23:48 23.33386 57.89550 28825 ft 544 kts 129°
2026-05-03 23:48 23.28665 57.95975 28806 ft 543 kts 129°
2026-05-03 23:49 23.23975 58.02417 28824 ft 543 kts 126°
2026-05-03 23:49 23.19697 58.09190 28816 ft 543 kts 123°
2026-05-03 23:50 23.16171 58.14853 28817 ft 544 kts 124°
2026-05-03 23:50 23.11175 58.22789 28817 ft 545 kts 124°
2026-05-03 23:51 23.06877 58.29579 28825 ft 546 kts 124°
2026-05-03 23:51 23.02235 58.36027 28809 ft 546 kts 135°
2026-05-03 23:52 22.96429 58.41317 28814 ft 544 kts 148°
2026-05-03 23:52 22.89948 58.45543 28830 ft 545 kts 151°
2026-05-03 23:53 22.83396 58.49785 28826 ft 551 kts 150°
2026-05-03 23:53 22.76821 58.54130 28828 ft 555 kts 150°
2026-05-03 23:54 22.70211 58.58513 28824 ft 558 kts 150°
2026-05-03 23:54 22.63556 58.62906 28820 ft 561 kts 150°
2026-05-03 23:55 22.56904 58.67292 28801 ft 563 kts 150°
2026-05-03 23:55 22.50211 58.71705 28811 ft 562 kts 150°
2026-05-03 23:56 22.43542 58.76098 28807 ft 560 kts 150°
2026-05-03 23:56 22.36886 58.80477 28804 ft 558 kts 150°
2026-05-03 23:57 22.30299 58.84806 28803 ft 556 kts 150°
2026-05-03 23:57 22.23955 58.89599 28803 ft 556 kts 140°
2026-05-03 23:58 22.18456 58.95451 28796 ft 556 kts 129°
2026-05-03 23:58 22.13563 59.01908 28801 ft 556 kts 129°
2026-05-03 23:59 22.08651 59.08364 28794 ft 557 kts 129°
2026-05-03 23:59 22.03688 59.14802 28794 ft 559 kts 129°
2026-05-04 00:00 21.98695 59.21240 28786 ft 560 kts 129°
2026-05-04 00:00 21.93719 59.27651 28776 ft 561 kts 129°